CST,Max TemperatureF,Mean TemperatureF,Min TemperatureF,Max Dew PointF,MeanDew PointF,Min DewpointF,Max Humidity, Mean Humidity, Min Humidity, Max Sea Level PressureIn, Mean Sea Level PressureIn, Min Sea Level PressureIn, Max VisibilityMiles, Mean VisibilityMiles, Min VisibilityMiles, Max Wind SpeedMPH, Mean Wind SpeedMPH, Max Gust SpeedMPH,PrecipitationIn, CloudCover, Events, WindDirDegrees
2011-11-1,79,68,57,55,51,49,77,58,39,30.06,29.95,29.87,10,10,10,25,16,32,0.00,0,,179
2011-11-2,80,61,42,57,46,30,78,58,37,30.39,30.03,29.84,10,10,10,32,23,40,0.00,1,,190
2011-11-3,55,44,32,31,23,14,75,47,19,30.49,30.40,30.30,10,10,10,20,9,23,0.00,0,,354
2011-11-4,64,47,29,23,20,15,75,46,17,30.29,30.16,29.99,10,10,10,22,10,26,0.00,0,,154
2011-11-5,75,63,50,56,35,20,73,50,26,29.98,29.83,29.71,10,10,10,33,20,46,0.00,0,,168
2011-11-6,79,70,61,65,55,44,90,63,36,29.97,29.89,29.84,10,10,10,17,9,23,0.00,3,,190
2011-11-7,80,73,66,65,64,63,93,74,54,29.90,29.82,29.74,10,10,10,31,20,38,0.00,1,,164
2011-11-8,70,58,46,63,47,24,93,57,20,30.22,29.92,29.73,10,10,10,26,15,32,0.01,3,Rain,282
2011-11-9,59,49,38,37,33,28,85,59,33,30.47,30.38,30.24,10,10,10,22,9,25,0.00,0,,358
2011-11-10,64,48,31,36,29,23,96,59,21,30.52,30.41,30.27,10,10,10,10,3,15,0.00,0,,197
2011-11-11,69,53,37,29,26,22,64,42,20,30.24,30.08,29.92,10,10,10,24,15,30,0.00,0,,198
2011-11-12,77,65,53,41,33,25,47,33,18,29.91,29.84,29.78,10,10,10,29,17,39,0.00,0,,201
2011-11-13,83,71,59,50,45,40,67,45,23,29.84,29.78,29.72,10,10,10,23,13,31,0.00,0,,199
2011-11-14,81,70,58,54,48,44,67,49,30,29.83,29.77,29.72,10,10,10,18,7,24,0.00,1,,190
2011-11-15,80,64,48,57,47,39,90,58,25,29.85,29.74,29.66,10,10,10,14,5,17,0.00,1,,268
2011-11-16,57,48,38,43,36,23,76,59,42,30.38,30.05,29.81,10,10,10,23,11,26,0.00,3,,353
2011-11-17,57,42,26,30,26,22,85,58,30,30.51,30.35,30.16,10,10,10,26,9,36,0.00,0,,124
2011-11-18,66,56,45,54,46,33,78,64,50,30.14,29.97,29.83,10,10,10,30,19,41,0.00,1,,183
2011-11-19,77,68,59,59,55,48,90,65,39,29.89,29.82,29.76,10,10,10,28,14,35,0.00,0,,190
2011-11-20,66,55,43,58,43,36,92,79,65,30.17,30.08,29.88,10,9,5,17,9,20,0.00,6,,356
2011-11-21,47,45,42,47,44,41,100,95,89,30.15,30.06,29.92,10,2,0,21,6,24,0.14,8,Fog-Rain-Thunderstorm,22
2011-11-22,53,48,43,49,46,43,100,92,83,30.26,30.11,30.01,10,6,0,15,7,17,0.00,7,Fog,323
2011-11-23,71,53,35,51,43,36,100,70,40,30.32,30.26,30.20,10,7,0,9,4,12,0.00,1,Fog,176
2011-11-24,73,59,45,50,44,38,93,61,29,30.23,30.14,30.03,10,10,10,26,11,29,0.00,0,,169
2011-11-25,69,62,54,59,53,45,89,73,57,30.02,29.88,29.79,10,10,8,30,17,39,0.03,4,Rain,183
2011-11-26,61,52,43,57,38,20,93,64,34,30.40,30.08,29.78,10,10,10,40,22,48,T,5,Rain,325
2011-11-27,52,41,30,21,12,0,52,32,12,30.47,30.38,30.28,10,10,10,29,14,36,0.00,0,,318
2011-11-28,68,48,27,24,18,11,63,39,14,30.25,30.11,30.01,10,10,10,10,4,13,0.00,0,,152
2011-11-29,57,43,28,33,27,22,78,54,30,30.34,30.24,30.07,10,10,10,16,6,21,0.00,0,,358
2011-11-30,62,45,27,33,28,20,92,59,26,30.29,30.14,29.96,10,10,10,20,9,25,0.00,0,,173